Time,TemperatureF,DewpointF,PressureIn,WindDirection,WindDirectionDegrees,WindSpeedMPH,WindSpeedGustMPH,Humidity,HourlyPrecipIn,Conditions,Clouds,dailyrainin,SoftwareType,DateUTC
2013-05-13 00:01:00,42.1,33.3,30.11,North,0,0.0,0.0,71,0.00,,,0.00,Weather View 32 v70,2013-05-13 06:01:00,
2013-05-13 00:06:00,42.1,31.9,30.11,North,0,0.0,0.0,67,0.00,,,0.00,Weather View 32 v70,2013-05-13 06:06:00,
2013-05-13 00:11:00,41.9,32.8,30.11,North,0,0.0,0.0,70,0.00,,,0.00,Weather View 32 v70,2013-05-13 06:11:00,
2013-05-13 00:16:00,41.9,32.8,30.11,North,0,0.0,0.0,70,0.00,,,0.00,Weather View 32 v70,2013-05-13 06:16:00,
2013-05-13 00:21:00,41.7,33.3,30.11,North,0,0.0,0.0,72,0.00,,,0.00,Weather View 32 v70,2013-05-13 06:21:00,
2013-05-13 00:26:00,41.7,31.6,30.11,North,0,0.0,0.0,67,0.00,,,0.00,Weather View 32 v70,2013-05-13 06:26:00,
2013-05-13 00:31:00,42.4,31.5,30.11,North,0,0.0,0.0,65,0.00,,,0.00,Weather View 32 v70,2013-05-13 06:31:00,
2013-05-13 00:36:00,42.8,32.2,30.11,North,0,0.0,0.0,66,0.00,,,0.00,Weather View 32 v70,2013-05-13 06:36:00,
2013-05-13 00:41:00,43.5,31.3,30.11,North,0,0.0,0.0,62,0.00,,,0.00,Weather View 32 v70,2013-05-13 06:41:00,
2013-05-13 00:46:00,43.5,30.5,30.11,North,0,0.0,0.0,60,0.00,,,0.00,Weather View 32 v70,2013-05-13 06:46:00,
2013-05-13 00:51:00,44.1,30.2,30.11,North,0,0.0,0.0,58,0.00,,,0.00,Weather View 32 v70,2013-05-13 06:51:00,
2013-05-13 00:56:00,45.0,30.2,30.11,North,0,0.0,0.0,56,0.00,,,0.00,Weather View 32 v70,2013-05-13 06:56:00,
2013-05-13 01:01:00,45.1,30.4,30.11,North,0,0.0,0.0,56,0.00,,,0.00,Weather View 32 v70,2013-05-13 07:01:00,
2013-05-13 01:06:00,45.3,30.1,30.11,North,0,0.0,0.0,55,0.00,,,0.00,Weather View 32 v70,2013-05-13 07:06:00,
2013-05-13 01:11:00,45.3,29.6,30.11,North,0,0.0,0.0,54,0.00,,,0.00,Weather View 32 v70,2013-05-13 07:11:00,
2013-05-13 01:16:00,46.0,29.4,30.11,North,0,0.0,0.0,52,0.00,,,0.00,Weather View 32 v70,2013-05-13 07:16:00,
2013-05-13 01:21:00,46.6,28.4,30.11,North,0,0.0,0.0,49,0.00,,,0.00,Weather View 32 v70,2013-05-13 07:21:00,
2013-05-13 01:26:00,47.3,28.1,30.11,North,0,0.0,0.0,47,0.00,,,0.00,Weather View 32 v70,2013-05-13 07:26:00,
2013-05-13 01:31:00,48.0,27.7,30.11,North,0,0.0,0.0,45,0.00,,,0.00,Weather View 32 v70,2013-05-13 07:31:00,
2013-05-13 01:36:00,48.2,27.8,30.08,North,0,0.0,0.0,45,0.00,,,0.00,Weather View 32 v70,2013-05-13 07:36:00,
2013-05-13 01:41:00,48.0,28.7,30.08,North,0,0.0,0.0,47,0.00,,,0.00,Weather View 32 v70,2013-05-13 07:41:00,
2013-05-13 01:46:00,48.2,27.8,30.08,North,0,0.0,0.0,45,0.00,,,0.00,Weather View 32 v70,2013-05-13 07:46:00,
2013-05-13 01:51:00,48.6,27.6,30.08,North,0,0.0,0.0,44,0.00,,,0.00,Weather View 32 v70,2013-05-13 07:51:00,
2013-05-13 01:56:00,47.8,29.1,30.08,North,0,0.0,0.0,48,0.00,,,0.00,Weather View 32 v70,2013-05-13 07:56:00,
2013-05-13 02:01:00,48.6,28.1,30.08,North,0,0.0,0.0,45,0.00,,,0.00,Weather View 32 v70,2013-05-13 08:01:00,
2013-05-13 02:06:00,49.1,27.5,30.08,North,0,0.0,0.0,43,0.00,,,0.00,Weather View 32 v70,2013-05-13 08:06:00,
2013-05-13 02:11:00,49.1,26.4,30.08,North,0,0.0,0.0,41,0.00,,,0.00,Weather View 32 v70,2013-05-13 08:11:00,
2013-05-13 02:16:00,50.4,26.3,30.08,North,0,0.0,0.0,39,0.00,,,0.00,Weather View 32 v70,2013-05-13 08:16:00,
2013-05-13 02:21:00,51.1,25.7,30.08,North,0,0.0,0.0,37,0.00,,,0.00,Weather View 32 v70,2013-05-13 08:21:00,
2013-05-13 02:26:00,52.2,26.0,30.08,North,0,0.0,0.0,36,0.00,,,0.00,Weather View 32 v70,2013-05-13 08:26:00,
2013-05-13 02:31:00,52.5,26.3,30.08,North,0,0.0,0.0,36,0.00,,,0.00,Weather View 32 v70,2013-05-13 08:31:00,
2013-05-13 02:36:00,52.2,26.0,30.08,North,0,0.0,0.0,36,0.00,,,0.00,Weather View 32 v70,2013-05-13 08:36:00,
2013-05-13 02:41:00,50.9,27.4,30.08,North,0,0.0,0.0,40,0.00,,,0.00,Weather View 32 v70,2013-05-13 08:41:00,
2013-05-13 02:46:00,50.9,26.8,30.08,North,0,0.0,0.0,39,0.00,,,0.00,Weather View 32 v70,2013-05-13 08:46:00,
2013-05-13 02:51:00,50.4,25.0,30.08,North,0,0.0,0.0,37,0.00,,,0.00,Weather View 32 v70,2013-05-13 08:51:00,
2013-05-13 02:56:00,50.7,26.0,30.08,North,0,0.0,0.0,38,0.00,,,0.00,Weather View 32 v70,2013-05-13 08:56:00,
2013-05-13 03:01:00,50.4,25.7,30.08,North,0,0.0,0.0,38,0.00,,,0.00,Weather View 32 v70,2013-05-13 09:01:00,
2013-05-13 03:06:00,50.5,27.7,30.08,North,0,0.0,0.0,41,0.00,,,0.00,Weather View 32 v70,2013-05-13 09:06:00,
2013-05-13 03:11:00,50.2,25.5,30.08,North,0,0.0,0.0,38,0.00,,,0.00,Weather View 32 v70,2013-05-13 09:11:00,
2013-05-13 03:16:00,50.5,25.2,30.08,North,0,0.0,0.0,37,0.00,,,0.00,Weather View 32 v70,2013-05-13 09:16:00,
2013-05-13 03:21:00,51.4,26.0,30.08,North,0,0.0,0.0,37,0.00,,,0.00,Weather View 32 v70,2013-05-13 09:21:00,
2013-05-13 03:26:00,52.0,26.5,30.08,North,0,0.0,0.0,37,0.00,,,0.00,Weather View 32 v70,2013-05-13 09:26:00,
2013-05-13 03:31:00,50.9,25.5,30.08,North,0,0.0,0.0,37,0.00,,,0.00,Weather View 32 v70,2013-05-13 09:31:00,
2013-05-13 03:36:00,51.4,26.6,30.08,North,0,0.0,0.0,38,0.00,,,0.00,Weather View 32 v70,2013-05-13 09:36:00,
2013-05-13 03:41:00,50.7,26.6,30.08,North,0,0.0,0.0,39,0.00,,,0.00,Weather View 32 v70,2013-05-13 09:41:00,
2013-05-13 03:46:00,50.4,27.5,30.08,North,0,0.0,0.0,41,0.00,,,0.00,Weather View 32 v70,2013-05-13 09:46:00,
2013-05-13 03:51:00,51.4,25.3,30.08,North,0,0.0,0.0,36,0.00,,,0.00,Weather View 32 v70,2013-05-13 09:51:00,
2013-05-13 03:56:00,52.7,27.1,30.08,North,0,0.0,0.0,37,0.00,,,0.00,Weather View 32 v70,2013-05-13 09:56:00,
2013-05-13 04:01:00,52.7,26.4,30.08,North,0,0.0,0.0,36,0.00,,,0.00,Weather View 32 v70,2013-05-13 10:01:00,
2013-05-13 04:15:00,53.2,26.2,30.08,North,0,0.0,0.0,35,0.00,,,0.00,Weather View 32 v70,2013-05-13 10:15:00,
2013-05-13 04:20:00,53.2,25.5,30.08,North,0,0.0,0.0,34,0.00,,,0.00,Weather View 32 v70,2013-05-13 10:20:00,
2013-05-13 04:25:00,53.2,26.9,30.08,North,0,0.0,0.0,36,0.00,,,0.00,Weather View 32 v70,2013-05-13 10:25:00,
2013-05-13 04:30:00,52.3,26.8,30.08,North,0,0.0,0.0,37,0.00,,,0.00,Weather View 32 v70,2013-05-13 10:30:00,
2013-05-13 04:35:00,52.0,25.8,30.08,North,0,0.0,0.0,36,0.00,,,0.00,Weather View 32 v70,2013-05-13 10:35:00,
2013-05-13 04:40:00,51.8,26.3,30.08,North,0,0.0,0.0,37,0.00,,,0.00,Weather View 32 v70,2013-05-13 10:40:00,
2013-05-13 04:45:00,52.2,26.0,30.08,North,0,0.0,0.0,36,0.00,,,0.00,Weather View 32 v70,2013-05-13 10:45:00,
2013-05-13 04:50:00,52.9,26.6,30.08,North,0,0.0,0.0,36,0.00,,,0.00,Weather View 32 v70,2013-05-13 10:50:00,
2013-05-13 04:55:00,52.9,26.6,30.08,North,0,0.0,0.0,36,0.00,,,0.00,Weather View 32 v70,2013-05-13 10:55:00,
2013-05-13 05:00:00,52.7,26.4,30.08,North,0,0.0,0.0,36,0.00,,,0.00,Weather View 32 v70,2013-05-13 11:00:00,
2013-05-13 05:05:00,53.2,26.2,30.08,North,0,0.0,0.0,35,0.00,,,0.00,Weather View 32 v70,2013-05-13 11:05:00,
2013-05-13 05:10:00,53.1,26.8,30.08,North,0,0.0,0.0,36,0.00,,,0.00,Weather View 32 v70,2013-05-13 11:10:00,
2013-05-13 05:15:00,52.3,26.8,30.08,North,0,0.0,0.0,37,0.00,,,0.00,Weather View 32 v70,2013-05-13 11:15:00,
2013-05-13 05:20:00,51.8,25.6,30.08,North,0,0.0,0.0,36,0.00,,,0.00,Weather View 32 v70,2013-05-13 11:20:00,
2013-05-13 05:25:00,51.6,26.1,30.08,North,0,0.0,0.0,37,0.00,,,0.00,Weather View 32 v70,2013-05-13 11:25:00,
2013-05-13 05:30:00,51.3,25.8,30.08,North,0,0.0,0.0,37,0.00,,,0.00,Weather View 32 v70,2013-05-13 11:30:00,
2013-05-13 05:35:00,50.7,26.0,30.08,North,0,0.0,0.0,38,0.00,,,0.00,Weather View 32 v70,2013-05-13 11:35:00,
2013-05-13 05:40:00,50.7,26.6,30.08,North,0,0.0,0.0,39,0.00,,,0.00,Weather View 32 v70,2013-05-13 11:40:00,
2013-05-13 05:45:00,50.2,26.1,30.08,North,0,0.0,0.0,39,0.00,,,0.00,Weather View 32 v70,2013-05-13 11:45:00,
2013-05-13 05:50:00,50.2,27.3,30.08,North,0,0.0,0.0,41,0.00,,,0.00,Weather View 32 v70,2013-05-13 11:50:00,
2013-05-13 05:55:00,50.4,26.3,30.08,North,0,0.0,0.0,39,0.00,,,0.00,Weather View 32 v70,2013-05-13 11:55:00,
2013-05-13 06:00:00,51.1,26.9,30.08,North,0,0.0,0.0,39,0.00,,,0.00,Weather View 32 v70,2013-05-13 12:00:00,
2013-05-13 06:05:00,50.2,28.5,30.11,North,0,0.0,0.0,43,0.00,,,0.00,Weather View 32 v70,2013-05-13 12:05:00,
2013-05-13 06:10:00,48.9,29.0,30.11,North,0,0.0,0.0,46,0.00,,,0.00,Weather View 32 v70,2013-05-13 12:10:00,
2013-05-13 06:15:00,48.7,28.3,30.11,North,0,0.0,0.0,45,0.00,,,0.00,Weather View 32 v70,2013-05-13 12:15:00,
2013-05-13 06:20:00,48.4,29.0,30.11,North,0,0.0,0.0,47,0.00,,,0.00,Weather View 32 v70,2013-05-13 12:20:00,
2013-05-13 06:31:00,48.6,29.7,30.11,North,0,0.0,0.0,48,0.00,,,0.00,Weather View 32 v70,2013-05-13 12:31:00,
2013-05-13 06:36:00,48.7,30.4,30.11,North,0,0.0,0.0,49,0.00,,,0.00,Weather View 32 v70,2013-05-13 12:36:00,
2013-05-13 06:41:00,48.9,31.1,30.11,North,0,0.0,0.0,50,0.00,,,0.00,Weather View 32 v70,2013-05-13 12:41:00,
2013-05-13 06:46:00,48.7,30.9,30.11,North,0,0.0,0.0,50,0.00,,,0.00,Weather View 32 v70,2013-05-13 12:46:00,
2013-05-13 06:51:00,48.6,31.2,30.11,North,0,0.0,0.0,51,0.00,,,0.00,Weather View 32 v70,2013-05-13 12:51:00,
2013-05-13 06:56:00,48.6,31.2,30.11,North,0,0.0,0.0,51,0.00,,,0.00,Weather View 32 v70,2013-05-13 12:56:00,
2013-05-13 07:01:00,48.7,33.7,30.11,North,0,0.0,0.0,56,0.00,,,0.00,Weather View 32 v70,2013-05-13 13:01:00,
2013-05-13 07:06:00,48.7,33.3,30.11,North,0,0.0,0.0,55,0.00,,,0.00,Weather View 32 v70,2013-05-13 13:06:00,
2013-05-13 07:11:00,48.9,34.3,30.11,North,0,0.0,0.0,57,0.00,,,0.00,Weather View 32 v70,2013-05-13 13:11:00,
2013-05-13 07:16:00,49.3,34.7,30.11,North,0,0.0,0.0,57,0.00,,,0.00,Weather View 32 v70,2013-05-13 13:16:00,
2013-05-13 07:21:00,49.8,33.8,30.14,North,0,0.0,0.0,54,0.00,,,0.00,Weather View 32 v70,2013-05-13 13:21:00,
2013-05-13 07:26:00,50.9,33.9,30.14,North,0,0.0,0.0,52,0.00,,,0.00,Weather View 32 v70,2013-05-13 13:26:00,
2013-05-13 07:31:00,52.0,33.9,30.14,North,0,0.0,0.0,50,0.00,,,0.00,Weather View 32 v70,2013-05-13 13:31:00,
2013-05-13 07:36:00,53.1,33.3,30.14,North,0,0.0,0.0,47,0.00,,,0.00,Weather View 32 v70,2013-05-13 13:36:00,
2013-05-13 07:41:00,53.2,31.8,30.14,North,0,0.0,0.0,44,0.00,,,0.00,Weather View 32 v70,2013-05-13 13:41:00,
2013-05-13 07:46:00,54.5,32.4,30.14,North,0,0.0,0.0,43,0.00,,,0.00,Weather View 32 v70,2013-05-13 13:46:00,
2013-05-13 07:51:00,55.4,29.5,30.14,North,0,0.0,0.0,37,0.00,,,0.00,Weather View 32 v70,2013-05-13 13:51:00,
2013-05-13 07:56:00,57.0,28.9,30.14,North,0,0.0,0.0,34,0.00,,,0.00,Weather View 32 v70,2013-05-13 13:56:00,
2013-05-13 08:01:00,58.1,27.6,30.14,North,0,0.0,0.0,31,0.00,,,0.00,Weather View 32 v70,2013-05-13 14:01:00,
2013-05-13 08:06:00,59.0,30.6,30.14,North,0,0.0,0.0,34,0.00,,,0.00,Weather View 32 v70,2013-05-13 14:06:00,
2013-05-13 08:11:00,59.4,28.7,30.14,North,0,0.0,0.0,31,0.00,,,0.00,Weather View 32 v70,2013-05-13 14:11:00,
2013-05-13 08:16:00,59.7,31.2,30.14,North,0,0.0,0.0,34,0.00,,,0.00,Weather View 32 v70,2013-05-13 14:16:00,
2013-05-13 08:22:00,59.9,30.7,30.14,North,0,0.0,0.0,33,0.00,,,0.00,Weather View 32 v70,2013-05-13 14:22:00,
2013-05-13 08:27:00,60.4,34.0,30.14,North,0,0.0,0.0,37,0.00,,,0.00,Weather View 32 v70,2013-05-13 14:27:00,
2013-05-13 08:31:00,60.6,32.0,30.14,North,0,0.0,0.0,34,0.00,,,0.00,Weather View 32 v70,2013-05-13 14:31:00,
2013-05-13 08:36:00,60.8,28.3,30.14,North,0,0.0,0.0,29,0.00,,,0.00,Weather View 32 v70,2013-05-13 14:36:00,
2013-05-13 08:41:00,61.3,27.9,30.14,North,0,0.0,0.0,28,0.00,,,0.00,Weather View 32 v70,2013-05-13 14:41:00,
2013-05-13 08:46:00,61.7,33.7,30.14,North,0,0.0,0.0,35,0.00,,,0.00,Weather View 32 v70,2013-05-13 14:46:00,
2013-05-13 08:51:00,62.1,33.3,30.14,North,0,0.0,0.0,34,0.00,,,0.00,Weather View 32 v70,2013-05-13 14:51:00,
2013-05-13 08:56:00,62.2,27.8,30.14,North,0,0.0,0.0,27,0.00,,,0.00,Weather View 32 v70,2013-05-13 14:56:00,
2013-05-13 09:01:00,63.3,26.8,30.14,North,0,0.0,0.0,25,0.00,,,0.00,Weather View 32 v70,2013-05-13 15:01:00,
2013-05-13 09:06:00,63.1,26.7,30.14,North,0,0.0,0.0,25,0.00,,,0.00,Weather View 32 v70,2013-05-13 15:06:00,
2013-05-13 09:11:00,64.4,27.7,30.14,North,0,0.0,0.0,25,0.00,,,0.00,Weather View 32 v70,2013-05-13 15:11:00,
2013-05-13 09:16:00,65.3,28.5,30.14,North,0,0.0,0.0,25,0.00,,,0.00,Weather View 32 v70,2013-05-13 15:16:00,
2013-05-13 09:21:00,65.8,28.0,30.14,North,0,0.0,0.0,24,0.00,,,0.00,Weather View 32 v70,2013-05-13 15:21:00,
2013-05-13 09:26:00,65.7,27.8,30.14,North,0,0.0,0.0,24,0.00,,,0.00,Weather View 32 v70,2013-05-13 15:26:00,
2013-05-13 09:31:00,66.0,28.1,30.14,North,0,0.0,0.0,24,0.00,,,0.00,Weather View 32 v70,2013-05-13 15:31:00,
2013-05-13 09:36:00,66.7,27.7,30.14,North,0,0.0,0.0,23,0.00,,,0.00,Weather View 32 v70,2013-05-13 15:36:00,
2013-05-13 09:41:00,67.3,28.1,30.14,North,0,0.0,0.0,23,0.00,,,0.00,Weather View 32 v70,2013-05-13 15:41:00,
2013-05-13 09:46:00,68.2,27.8,30.14,North,0,0.0,0.0,22,0.00,,,0.00,Weather View 32 v70,2013-05-13 15:46:00,
2013-05-13 09:51:00,67.1,28.0,30.14,North,0,0.0,0.0,23,0.00,,,0.00,Weather View 32 v70,2013-05-13 15:51:00,
2013-05-13 09:56:00,68.0,28.7,30.14,North,0,0.0,0.0,23,0.00,,,0.00,Weather View 32 v70,2013-05-13 15:56:00,
2013-05-13 10:01:00,68.4,29.0,30.14,East,95,5.0,5.0,23,0.00,,,0.00,Weather View 32 v70,2013-05-13 16:01:00,
2013-05-13 10:06:00,67.8,28.6,30.14,East,83,3.0,5.0,23,0.00,,,0.00,Weather View 32 v70,2013-05-13 16:06:00,
2013-05-13 10:11:00,68.5,28.1,30.14,South,179,2.0,5.0,22,0.00,,,0.00,Weather View 32 v70,2013-05-13 16:11:00,
2013-05-13 10:16:00,69.1,28.5,30.14,SSE,153,0.0,5.0,22,0.00,,,0.00,Weather View 32 v70,2013-05-13 16:16:00,
2013-05-13 10:21:00,68.9,28.4,30.14,SSW,213,3.0,5.0,22,0.00,,,0.00,Weather View 32 v70,2013-05-13 16:21:00,
2013-05-13 10:26:00,69.4,28.9,30.14,SE,139,0.0,5.0,22,0.00,,,0.00,Weather View 32 v70,2013-05-13 16:26:00,
2013-05-13 10:31:00,70.5,29.8,30.14,North,0,0.0,5.0,22,0.00,,,0.00,Weather View 32 v70,2013-05-13 16:31:00,
2013-05-13 10:36:00,71.1,30.2,30.14,North,0,0.0,5.0,22,0.00,,,0.00,Weather View 32 v70,2013-05-13 16:36:00,
2013-05-13 10:41:00,71.2,30.3,30.14,North,0,0.0,5.0,22,0.00,,,0.00,Weather View 32 v70,2013-05-13 16:41:00,
2013-05-13 10:46:00,71.6,29.5,30.14,North,0,0.0,5.0,21,0.00,,,0.00,Weather View 32 v70,2013-05-13 16:46:00,
2013-05-13 10:52:00,71.8,27.2,30.14,WSW,257,0.0,5.0,19,0.00,,,0.00,Weather View 32 v70,2013-05-13 16:52:00,
2013-05-13 10:57:00,71.6,27.1,30.14,ENE,59,0.0,5.0,19,0.00,,,0.00,Weather View 32 v70,2013-05-13 16:57:00,
2013-05-13 11:02:00,71.1,30.2,30.14,North,0,0.0,5.0,22,0.00,,,0.00,Weather View 32 v70,2013-05-13 17:02:00,
2013-05-13 11:07:00,72.5,30.2,30.14,North,353,0.0,5.0,21,0.00,,,0.00,Weather View 32 v70,2013-05-13 17:07:00,
2013-05-13 11:12:00,72.0,27.4,30.14,East,83,0.0,7.0,19,0.00,,,0.00,Weather View 32 v70,2013-05-13 17:12:00,
2013-05-13 11:17:00,71.6,27.1,30.14,SE,141,5.0,7.0,19,0.00,,,0.00,Weather View 32 v70,2013-05-13 17:17:00,
2013-05-13 11:22:00,72.3,27.7,30.14,North,0,0.0,7.0,19,0.00,,,0.00,Weather View 32 v70,2013-05-13 17:22:00,
2013-05-13 11:27:00,73.4,27.2,30.14,North,2,0.0,7.0,18,0.00,,,0.00,Weather View 32 v70,2013-05-13 17:27:00,
2013-05-13 11:32:00,73.4,27.2,30.14,West,262,6.0,7.0,18,0.00,,,0.00,Weather View 32 v70,2013-05-13 17:32:00,
2013-05-13 11:37:00,73.4,27.2,30.14,North,0,0.0,7.0,18,0.00,,,0.00,Weather View 32 v70,2013-05-13 17:37:00,
2013-05-13 11:42:00,74.3,27.9,30.14,WSW,248,0.0,7.0,18,0.00,,,0.00,Weather View 32 v70,2013-05-13 17:42:00,
2013-05-13 11:47:00,74.1,27.8,30.14,SSW,194,0.0,7.0,18,0.00,,,0.00,Weather View 32 v70,2013-05-13 17:47:00,
2013-05-13 11:52:00,73.0,28.2,30.14,NE,36,0.0,7.0,19,0.00,,,0.00,Weather View 32 v70,2013-05-13 17:52:00,
2013-05-13 11:57:00,74.3,27.9,30.14,North,0,0.0,7.0,18,0.00,,,0.00,Weather View 32 v70,2013-05-13 17:57:00,
2013-05-13 12:02:00,74.5,28.1,30.14,North,0,0.0,7.0,18,0.00,,,0.00,Weather View 32 v70,2013-05-13 18:02:00,
2013-05-13 12:07:00,73.9,27.7,30.14,North,0,0.0,7.0,18,0.00,,,0.00,Weather View 32 v70,2013-05-13 18:07:00,
2013-05-13 12:12:00,72.3,27.7,30.14,North,0,0.0,6.0,19,0.00,,,0.00,Weather View 32 v70,2013-05-13 18:12:00,
2013-05-13 12:17:00,71.4,26.9,30.14,North,0,0.0,6.0,19,0.00,,,0.00,Weather View 32 v70,2013-05-13 18:17:00,
2013-05-13 12:22:00,70.5,26.2,30.14,North,0,0.0,6.0,19,0.00,,,0.00,Weather View 32 v70,2013-05-13 18:22:00,
2013-05-13 12:27:00,70.7,26.3,30.14,North,0,0.0,6.0,19,0.00,,,0.00,Weather View 32 v70,2013-05-13 18:27:00,
2013-05-13 12:32:00,70.5,26.2,30.14,North,0,0.0,6.0,19,0.00,,,0.00,Weather View 32 v70,2013-05-13 18:32:00,
2013-05-13 12:36:00,71.2,26.8,30.11,North,0,0.0,5.0,19,0.00,,,0.00,Weather View 32 v70,2013-05-13 18:36:00,
2013-05-13 12:41:00,70.9,26.5,30.11,North,0,0.0,5.0,19,0.00,,,0.00,Weather View 32 v70,2013-05-13 18:41:00,
2013-05-13 12:46:00,70.5,26.2,30.11,North,0,0.0,0.0,19,0.00,,,0.00,Weather View 32 v70,2013-05-13 18:46:00,
2013-05-13 12:51:00,70.2,25.9,30.11,North,0,0.0,0.0,19,0.00,,,0.00,Weather View 32 v70,2013-05-13 18:51:00,
2013-05-13 12:56:00,70.2,25.9,30.11,East,81,5.0,5.0,19,0.00,,,0.00,Weather View 32 v70,2013-05-13 18:56:00,
2013-05-13 13:01:00,70.5,26.2,30.11,North,0,0.0,5.0,19,0.00,,,0.00,Weather View 32 v70,2013-05-13 19:01:00,
2013-05-13 13:06:00,71.1,26.6,30.11,NE,54,0.0,5.0,19,0.00,,,0.00,Weather View 32 v70,2013-05-13 19:06:00,
2013-05-13 13:11:00,72.1,27.5,30.11,North,0,0.0,5.0,19,0.00,,,0.00,Weather View 32 v70,2013-05-13 19:11:00,
2013-05-13 13:16:00,73.2,28.4,30.11,South,169,0.0,8.0,19,0.00,,,0.00,Weather View 32 v70,2013-05-13 19:16:00,
2013-05-13 13:21:00,72.3,27.7,30.11,ENE,64,0.0,8.0,19,0.00,,,0.00,Weather View 32 v70,2013-05-13 19:21:00,
2013-05-13 13:26:00,71.4,26.9,30.11,North,0,0.0,8.0,19,0.00,,,0.00,Weather View 32 v70,2013-05-13 19:26:00,
2013-05-13 13:31:00,70.5,26.2,30.11,North,0,0.0,8.0,19,0.00,,,0.00,Weather View 32 v70,2013-05-13 19:31:00,
2013-05-13 13:36:00,70.5,26.2,30.11,North,0,0.0,8.0,19,0.00,,,0.00,Weather View 32 v70,2013-05-13 19:36:00,
2013-05-13 13:41:00,72.3,27.7,30.11,North,0,0.0,8.0,19,0.00,,,0.00,Weather View 32 v70,2013-05-13 19:41:00,
2013-05-13 13:46:00,72.3,27.7,30.11,North,0,0.0,8.0,19,0.00,,,0.00,Weather View 32 v70,2013-05-13 19:46:00,
2013-05-13 13:51:00,72.0,27.4,30.11,North,0,0.0,8.0,19,0.00,,,0.00,Weather View 32 v70,2013-05-13 19:51:00,
2013-05-13 13:56:00,70.3,26.0,30.11,North,0,0.0,8.0,19,0.00,,,0.00,Weather View 32 v70,2013-05-13 19:56:00,
2013-05-13 14:01:00,70.5,29.8,30.11,North,0,0.0,8.0,22,0.00,,,0.00,Weather View 32 v70,2013-05-13 20:01:00,
2013-05-13 14:06:00,69.8,25.6,30.11,ENE,75,0.0,8.0,19,0.00,,,0.00,Weather View 32 v70,2013-05-13 20:06:00,
2013-05-13 14:11:00,70.0,29.3,30.11,NNW,341,0.0,8.0,22,0.00,,,0.00,Weather View 32 v70,2013-05-13 20:11:00,
2013-05-13 14:16:00,71.1,30.2,30.11,East,87,0.0,0.0,22,0.00,,,0.00,Weather View 32 v70,2013-05-13 20:16:00,
2013-05-13 14:21:00,70.9,26.5,30.11,North,0,0.0,0.0,19,0.00,,,0.00,Weather View 32 v70,2013-05-13 20:21:00,
2013-05-13 14:26:00,70.5,29.8,30.11,North,0,0.0,0.0,22,0.00,,,0.00,Weather View 32 v70,2013-05-13 20:26:00,
2013-05-13 14:31:00,70.0,29.3,30.11,North,0,0.0,0.0,22,0.00,,,0.00,Weather View 32 v70,2013-05-13 20:31:00,
2013-05-13 14:36:00,69.8,29.1,30.11,North,0,0.0,0.0,22,0.00,,,0.00,Weather View 32 v70,2013-05-13 20:36:00,
2013-05-13 14:41:00,69.6,29.0,30.11,North,0,0.0,0.0,22,0.00,,,0.00,Weather View 32 v70,2013-05-13 20:41:00,
2013-05-13 14:46:00,69.3,28.7,30.11,North,0,0.0,0.0,22,0.00,,,0.00,Weather View 32 v70,2013-05-13 20:46:00,
2013-05-13 14:51:00,69.8,29.1,30.11,North,0,0.0,0.0,22,0.00,,,0.00,Weather View 32 v70,2013-05-13 20:51:00,
2013-05-13 14:56:00,69.8,29.1,30.11,North,0,0.0,0.0,22,0.00,,,0.00,Weather View 32 v70,2013-05-13 20:56:00,
2013-05-13 15:01:00,69.8,29.1,30.11,North,0,0.0,0.0,22,0.00,,,0.00,Weather View 32 v70,2013-05-13 21:01:00,
2013-05-13 15:06:00,70.3,29.6,30.11,North,0,0.0,0.0,22,0.00,,,0.00,Weather View 32 v70,2013-05-13 21:06:00,
2013-05-13 15:11:00,70.9,30.0,30.11,North,0,0.0,0.0,22,0.00,,,0.00,Weather View 32 v70,2013-05-13 21:11:00,
2013-05-13 15:16:00,71.2,30.3,30.11,North,0,0.0,0.0,22,0.00,,,0.00,Weather View 32 v70,2013-05-13 21:16:00,
2013-05-13 15:21:00,70.2,29.5,30.11,North,0,0.0,0.0,22,0.00,,,0.00,Weather View 32 v70,2013-05-13 21:21:00,
2013-05-13 15:26:00,69.4,28.9,30.11,North,0,0.0,0.0,22,0.00,,,0.00,Weather View 32 v70,2013-05-13 21:26:00,
2013-05-13 15:31:00,69.4,28.9,30.11,North,0,0.0,0.0,22,0.00,,,0.00,Weather View 32 v70,2013-05-13 21:31:00,
2013-05-13 15:36:00,70.3,29.6,30.08,North,3,0.0,0.0,22,0.00,,,0.00,Weather View 32 v70,2013-05-13 21:36:00,
2013-05-13 15:41:00,70.9,30.0,30.08,North,0,0.0,0.0,22,0.00,,,0.00,Weather View 32 v70,2013-05-13 21:41:00,
2013-05-13 15:46:00,70.3,29.6,30.08,North,0,0.0,0.0,22,0.00,,,0.00,Weather View 32 v70,2013-05-13 21:46:00,
2013-05-13 15:51:00,69.8,29.1,30.08,North,0,0.0,0.0,22,0.00,,,0.00,Weather View 32 v70,2013-05-13 21:51:00,
2013-05-13 15:56:00,69.4,28.9,30.08,North,0,0.0,0.0,22,0.00,,,0.00,Weather View 32 v70,2013-05-13 21:56:00,
2013-05-13 16:01:00,69.8,29.1,30.08,North,3,0.0,0.0,22,0.00,,,0.00,Weather View 32 v70,2013-05-13 22:01:00,
2013-05-13 16:06:00,70.2,29.5,30.08,North,0,0.0,0.0,22,0.00,,,0.00,Weather View 32 v70,2013-05-13 22:06:00,
2013-05-13 16:11:00,70.7,29.9,30.08,North,0,0.0,0.0,22,0.00,,,0.00,Weather View 32 v70,2013-05-13 22:11:00,
2013-05-13 16:16:00,71.1,30.2,30.08,SW,224,0.0,0.0,22,0.00,,,0.00,Weather View 32 v70,2013-05-13 22:16:00,
2013-05-13 16:21:00,71.6,29.5,30.08,ESE,107,0.0,0.0,21,0.00,,,0.00,Weather View 32 v70,2013-05-13 22:21:00,
2013-05-13 16:26:00,71.4,30.5,30.08,NNW,330,0.0,0.0,22,0.00,,,0.00,Weather View 32 v70,2013-05-13 22:26:00,
2013-05-13 16:31:00,71.4,30.5,30.08,North,0,0.0,0.0,22,0.00,,,0.00,Weather View 32 v70,2013-05-13 22:31:00,
2013-05-13 16:36:00,71.6,29.5,30.08,North,1,0.0,0.0,21,0.00,,,0.00,Weather View 32 v70,2013-05-13 22:36:00,
2013-05-13 16:41:00,70.7,29.9,30.08,NE,50,3.0,4.0,22,0.00,,,0.00,Weather View 32 v70,2013-05-13 22:41:00,
2013-05-13 16:46:00,70.0,29.3,30.08,North,0,0.0,4.0,22,0.00,,,0.00,Weather View 32 v70,2013-05-13 22:46:00,
2013-05-13 16:51:00,69.4,28.9,30.08,North,0,0.0,4.0,22,0.00,,,0.00,Weather View 32 v70,2013-05-13 22:51:00,
2013-05-13 16:57:00,69.4,28.9,30.08,North,0,0.0,4.0,22,0.00,,,0.00,Weather View 32 v70,2013-05-13 22:57:00,
2013-05-13 17:02:00,69.4,28.9,30.08,North,0,0.0,4.0,22,0.00,,,0.00,Weather View 32 v70,2013-05-13 23:02:00,
2013-05-13 17:07:00,69.4,28.9,30.08,North,0,0.0,4.0,22,0.00,,,0.00,Weather View 32 v70,2013-05-13 23:07:00,
2013-05-13 17:12:00,69.4,28.9,30.08,North,0,0.0,4.0,22,0.00,,,0.00,Weather View 32 v70,2013-05-13 23:12:00,
2013-05-13 17:17:00,69.4,28.9,30.08,North,0,0.0,4.0,22,0.00,,,0.00,Weather View 32 v70,2013-05-13 23:17:00,
2013-05-13 17:22:00,68.7,28.2,30.08,North,0,0.0,4.0,22,0.00,,,0.00,Weather View 32 v70,2013-05-13 23:22:00,
2013-05-13 17:27:00,68.5,28.1,30.08,North,0,0.0,4.0,22,0.00,,,0.00,Weather View 32 v70,2013-05-13 23:27:00,
2013-05-13 17:32:00,68.4,27.9,30.08,North,0,0.0,4.0,22,0.00,,,0.00,Weather View 32 v70,2013-05-13 23:32:00,
2013-05-13 17:37:00,68.0,28.7,30.08,North,0,0.0,4.0,23,0.00,,,0.00,Weather View 32 v70,2013-05-13 23:37:00,
2013-05-13 17:42:00,67.8,28.6,30.08,North,0,0.0,3.0,23,0.00,,,0.00,Weather View 32 v70,2013-05-13 23:42:00,
2013-05-13 17:47:00,68.0,27.6,30.08,North,0,0.0,0.0,22,0.00,,,0.00,Weather View 32 v70,2013-05-13 23:47:00,
2013-05-13 17:52:00,67.8,28.6,30.08,North,0,0.0,0.0,23,0.00,,,0.00,Weather View 32 v70,2013-05-13 23:52:00,
2013-05-13 17:57:00,67.6,28.4,30.08,SSE,150,0.0,0.0,23,0.00,,,0.00,Weather View 32 v70,2013-05-13 23:57:00,
2013-05-13 18:02:00,67.6,27.3,30.08,WNW,290,6.0,6.0,22,0.00,,,0.00,Weather View 32 v70,2013-05-14 00:02:00,
2013-05-13 18:07:00,67.5,28.3,30.08,North,0,0.0,6.0,23,0.00,,,0.00,Weather View 32 v70,2013-05-14 00:07:00,
2013-05-13 18:12:00,66.9,28.9,30.08,West,279,0.0,6.0,24,0.00,,,0.00,Weather View 32 v70,2013-05-14 00:12:00,
2013-05-13 18:17:00,66.7,27.7,30.06,North,0,0.0,6.0,23,0.00,,,0.00,Weather View 32 v70,2013-05-14 00:17:00,
2013-05-13 18:22:00,66.6,27.5,30.06,North,0,0.0,6.0,23,0.00,,,0.00,Weather View 32 v70,2013-05-14 00:22:00,
2013-05-13 18:27:00,66.4,27.4,30.06,North,0,0.0,6.0,23,0.00,,,0.00,Weather View 32 v70,2013-05-14 00:27:00,
2013-05-13 18:32:00,66.4,27.4,30.06,North,0,0.0,6.0,23,0.00,,,0.00,Weather View 32 v70,2013-05-14 00:32:00,
2013-05-13 18:37:00,65.8,26.9,30.06,North,0,0.0,6.0,23,0.00,,,0.00,Weather View 32 v70,2013-05-14 00:37:00,
2013-05-13 18:42:00,64.9,29.2,30.06,North,0,0.0,6.0,26,0.00,,,0.00,Weather View 32 v70,2013-05-14 00:42:00,
2013-05-13 18:47:00,63.9,30.0,30.06,North,0,0.0,6.0,28,0.00,,,0.00,Weather View 32 v70,2013-05-14 00:47:00,
2013-05-13 18:52:00,63.0,33.3,30.06,North,0,0.0,6.0,33,0.00,,,0.00,Weather View 32 v70,2013-05-14 00:52:00,
2013-05-13 18:57:00,62.2,35.6,30.06,North,0,0.0,6.0,37,0.00,,,0.00,Weather View 32 v70,2013-05-14 00:57:00,
2013-05-13 19:02:00,61.7,35.1,30.06,North,0,0.0,6.0,37,0.00,,,0.00,Weather View 32 v70,2013-05-14 01:02:00,
2013-05-13 19:07:00,61.2,36.6,30.06,North,0,0.0,0.0,40,0.00,,,0.00,Weather View 32 v70,2013-05-14 01:07:00,
2013-05-13 19:12:00,60.4,35.9,30.06,North,0,0.0,0.0,40,0.00,,,0.00,Weather View 32 v70,2013-05-14 01:12:00,
2013-05-13 19:17:00,59.7,35.9,30.06,North,0,0.0,0.0,41,0.00,,,0.00,Weather View 32 v70,2013-05-14 01:17:00,
2013-05-13 19:22:00,59.0,37.6,30.06,North,0,0.0,0.0,45,0.00,,,0.00,Weather View 32 v70,2013-05-14 01:22:00,
2013-05-13 19:27:00,58.3,37.5,30.06,North,0,0.0,0.0,46,0.00,,,0.00,Weather View 32 v70,2013-05-14 01:27:00,
2013-05-13 19:32:00,57.6,37.4,30.06,North,0,0.0,0.0,47,0.00,,,0.00,Weather View 32 v70,2013-05-14 01:32:00,
2013-05-13 19:37:00,57.2,37.6,30.06,North,0,0.0,0.0,48,0.00,,,0.00,Weather View 32 v70,2013-05-14 01:37:00,
2013-05-13 19:42:00,56.5,38.0,30.06,North,0,0.0,0.0,50,0.00,,,0.00,Weather View 32 v70,2013-05-14 01:42:00,
2013-05-13 19:47:00,55.8,37.4,30.06,North,0,0.0,0.0,50,0.00,,,0.00,Weather View 32 v70,2013-05-14 01:47:00,
2013-05-13 19:52:00,55.0,37.2,30.06,North,0,0.0,0.0,51,0.00,,,0.00,Weather View 32 v70,2013-05-14 01:52:00,
2013-05-13 19:57:00,54.5,37.7,30.06,North,0,0.0,0.0,53,0.00,,,0.00,Weather View 32 v70,2013-05-14 01:57:00,
2013-05-13 20:02:00,53.8,37.0,30.06,North,0,0.0,0.0,53,0.00,,,0.00,Weather View 32 v70,2013-05-14 02:02:00,
2013-05-13 20:07:00,53.1,36.8,30.06,North,0,0.0,0.0,54,0.00,,,0.00,Weather View 32 v70,2013-05-14 02:07:00,
2013-05-13 20:12:00,52.7,36.0,30.06,North,0,0.0,0.0,53,0.00,,,0.00,Weather View 32 v70,2013-05-14 02:12:00,
2013-05-13 20:17:00,52.3,35.7,30.06,North,0,0.0,0.0,53,0.00,,,0.00,Weather View 32 v70,2013-05-14 02:17:00,
2013-05-13 20:22:00,51.6,35.5,30.06,North,0,0.0,0.0,54,0.00,,,0.00,Weather View 32 v70,2013-05-14 02:22:00,
2013-05-13 20:27:00,51.1,35.4,30.06,North,0,0.0,0.0,55,0.00,,,0.00,Weather View 32 v70,2013-05-14 02:27:00,
2013-05-13 20:32:00,50.7,37.3,30.06,North,0,0.0,0.0,60,0.00,,,0.00,Weather View 32 v70,2013-05-14 02:32:00,
2013-05-13 20:37:00,50.2,37.6,30.08,North,0,0.0,0.0,62,0.00,,,0.00,Weather View 32 v70,2013-05-14 02:37:00,
2013-05-13 20:42:00,49.8,36.9,30.08,North,0,0.0,0.0,61,0.00,,,0.00,Weather View 32 v70,2013-05-14 02:42:00,
2013-05-13 20:47:00,49.3,36.8,30.08,North,0,0.0,0.0,62,0.00,,,0.00,Weather View 32 v70,2013-05-14 02:47:00,
2013-05-13 20:52:00,48.9,36.0,30.06,North,0,0.0,0.0,61,0.00,,,0.00,Weather View 32 v70,2013-05-14 02:52:00,
2013-05-13 20:57:00,48.4,35.5,30.06,North,0,0.0,0.0,61,0.00,,,0.00,Weather View 32 v70,2013-05-14 02:57:00,
2013-05-13 21:02:00,48.0,35.2,30.06,North,0,0.0,0.0,61,0.00,,,0.00,Weather View 32 v70,2013-05-14 03:02:00,
2013-05-13 21:07:00,47.7,36.1,30.06,North,0,0.0,0.0,64,0.00,,,0.00,Weather View 32 v70,2013-05-14 03:07:00,
2013-05-13 21:12:00,47.5,36.3,30.06,North,0,0.0,0.0,65,0.00,,,0.00,Weather View 32 v70,2013-05-14 03:12:00,
2013-05-13 21:17:00,47.5,36.3,30.08,North,0,0.0,0.0,65,0.00,,,0.00,Weather View 32 v70,2013-05-14 03:17:00,
2013-05-13 21:22:00,47.5,36.3,30.08,North,0,0.0,0.0,65,0.00,,,0.00,Weather View 32 v70,2013-05-14 03:22:00,
2013-05-13 21:27:00,47.3,35.3,30.08,North,0,0.0,0.0,63,0.00,,,0.00,Weather View 32 v70,2013-05-14 03:27:00,
2013-05-13 21:32:00,47.5,35.5,30.06,North,0,0.0,0.0,63,0.00,,,0.00,Weather View 32 v70,2013-05-14 03:32:00,
2013-05-13 21:37:00,47.7,34.8,30.06,North,0,0.0,0.0,61,0.00,,,0.00,Weather View 32 v70,2013-05-14 03:37:00,
2013-05-13 21:42:00,48.0,34.4,30.06,North,0,0.0,0.0,59,0.00,,,0.00,Weather View 32 v70,2013-05-14 03:42:00,
2013-05-13 21:47:00,48.4,33.4,30.06,North,0,0.0,0.0,56,0.00,,,0.00,Weather View 32 v70,2013-05-14 03:47:00,
2013-05-13 21:52:00,48.6,34.0,30.06,North,0,0.0,0.0,57,0.00,,,0.00,Weather View 32 v70,2013-05-14 03:52:00,
2013-05-13 21:57:00,48.6,33.5,30.06,North,0,0.0,0.0,56,0.00,,,0.00,Weather View 32 v70,2013-05-14 03:57:00,
2013-05-13 22:01:00,48.4,32.9,30.06,North,0,0.0,0.0,55,0.00,,,0.00,Weather View 32 v70,2013-05-14 04:01:00,
2013-05-13 22:06:00,48.2,32.8,30.06,North,0,0.0,0.0,55,0.00,,,0.00,Weather View 32 v70,2013-05-14 04:06:00,
2013-05-13 22:11:00,48.0,33.9,30.06,North,0,0.0,0.0,58,0.00,,,0.00,Weather View 32 v70,2013-05-14 04:11:00,
2013-05-13 22:16:00,47.7,33.6,30.06,North,0,0.0,0.0,58,0.00,,,0.00,Weather View 32 v70,2013-05-14 04:16:00,
2013-05-13 22:21:00,47.5,33.8,30.06,North,0,0.0,0.0,59,0.00,,,0.00,Weather View 32 v70,2013-05-14 04:21:00,
2013-05-13 22:26:00,47.3,34.5,30.06,North,0,0.0,0.0,61,0.00,,,0.00,Weather View 32 v70,2013-05-14 04:26:00,
2013-05-13 22:31:00,47.1,34.3,30.06,North,0,0.0,0.0,61,0.00,,,0.00,Weather View 32 v70,2013-05-14 04:31:00,
2013-05-13 22:36:00,47.1,33.9,30.06,North,0,0.0,0.0,60,0.00,,,0.00,Weather View 32 v70,2013-05-14 04:36:00,
2013-05-13 22:41:00,47.3,33.2,30.06,North,0,0.0,0.0,58,0.00,,,0.00,Weather View 32 v70,2013-05-14 04:41:00,
2013-05-13 22:46:00,47.5,33.0,30.06,North,0,0.0,0.0,57,0.00,,,0.00,Weather View 32 v70,2013-05-14 04:46:00,
2013-05-13 22:51:00,47.5,33.0,30.06,North,0,0.0,0.0,57,0.00,,,0.00,Weather View 32 v70,2013-05-14 04:51:00,
2013-05-13 22:56:00,47.5,33.0,30.06,North,0,0.0,0.0,57,0.00,,,0.00,Weather View 32 v70,2013-05-14 04:56:00,
2013-05-13 23:01:00,47.3,32.4,30.06,North,0,0.0,0.0,56,0.00,,,0.00,Weather View 32 v70,2013-05-14 05:01:00,
2013-05-13 23:06:00,47.1,33.1,30.06,North,0,0.0,0.0,58,0.00,,,0.00,Weather View 32 v70,2013-05-14 05:06:00,
2013-05-13 23:11:00,46.6,33.4,30.06,North,0,0.0,0.0,60,0.00,,,0.00,Weather View 32 v70,2013-05-14 05:11:00,
2013-05-13 23:16:00,46.2,33.9,30.06,North,0,0.0,0.0,62,0.00,,,0.00,Weather View 32 v70,2013-05-14 05:16:00,
2013-05-13 23:21:00,45.9,34.4,30.06,North,0,0.0,0.0,64,0.00,,,0.00,Weather View 32 v70,2013-05-14 05:21:00,
2013-05-13 23:26:00,45.5,34.4,30.06,North,0,0.0,0.0,65,0.00,,,0.00,Weather View 32 v70,2013-05-14 05:26:00,
2013-05-13 23:31:00,45.1,34.8,30.06,North,0,0.0,0.0,67,0.00,,,0.00,Weather View 32 v70,2013-05-14 05:31:00,
2013-05-13 23:36:00,44.8,34.8,30.06,North,0,0.0,0.0,68,0.00,,,0.00,Weather View 32 v70,2013-05-14 05:36:00,
2013-05-13 23:41:00,44.8,34.5,30.06,North,0,0.0,0.0,67,0.00,,,0.00,Weather View 32 v70,2013-05-14 05:41:00,
2013-05-13 23:46:00,44.6,34.7,30.06,North,0,0.0,0.0,68,0.00,,,0.00,Weather View 32 v70,2013-05-14 05:46:00,
2013-05-13 23:51:00,44.6,35.0,30.06,North,0,0.0,0.0,69,0.00,,,0.00,Weather View 32 v70,2013-05-14 05:51:00,
2013-05-13 23:56:00,44.4,35.2,30.06,North,0,0.0,0.0,70,0.00,,,0.00,Weather View 32 v70,2013-05-14 05:56:00,